Wind_Speed
8 7 8 8 9 10 10 10 9 9 9 10 10 10 11 12 13 14 14 15 15 15 15 15 15 16 16 17 17 17 18 18 18 19 20 20 20 21 21 21 21 22 22
8 8 8 8 9 10 10 10 10 10 10 10 10 11 12 13 14 14 14 15 15 15 15 15 16 16 16 17 18 19 18 18 19 19 20 21 21 21 21 21 22 22 22
9 9 8 8 9 9 9 9 9 10 10 10 11 12 13 14 14 15 15 15 15 15 15 16 16 16 17 17 18 19 19 19 19 19 20 20 20 20 21 21 22 22 22
9 8 8 9 9 10 10 10 11 11 12 12 13 13 14 14 15 15 16 16 16 16 17 17 17 17 17 18 18 19 19 19 19 20 20 20 21 20 20 21 22 22 22
10 10 10 10 10 11 11 11 12 12 13 13 14 15 15 15 15 15 16 16 17 17 17 18 18 18 17 18 18 19 19 19 19 20 20 21 20 20 20 21 21 22 22
12 11 11 11 11 12 13 13 12 12 13 14 15 15 16 16 16 16 17 17 18 17 17 18 19 18 18 18 17 18 19 19 20 20 21 21 21 20 21 21 21 22 22
13 13 12 12 13 13 13 13 12 13 13 14 15 15 15 15 16 16 17 18 18 18 18 18 18 18 18 17 17 18 18 18 19 20 21 21 21 21 21 21 21 21 22
14 14 14 13 13 13 13 13 13 14 14 15 16 16 16 16 17 17 18 18 18 18 18 18 18 18 18 17 18 18 17 17 18 19 20 20 19 19 20 21 21 21 22
14 14 14 14 14 14 14 14 14 14 16 16 16 16 16 16 17 18 18 18 18 18 18 18 18 18 17 17 17 17 17 16 17 17 17 17 17 18 19 20 20 20 20
15 15 14 13 14 14 14 14 15 15 16 16 16 16 15 16 17 17 18 18 18 18 18 18 18 18 17 17 16 17 17 17 17 17 16 16 16 17 18 19 20 20 21
16 15 14 14 14 15 15 15 15 15 16 16 16 15 15 16 16 17 17 17 18 18 17 18 18 17 17 17 16 16 16 17 17 17 16 16 17 18 19 20 20 21 21
15 15 14 13 13 13 14 15 15 15 15 16 16 15 16 16 16 16 16 16 17 17 17 17 17 16 16 16 16 16 16 16 17 16 16 17 17 18 19 19 20 21 22
15 15 15 14 13 14 14 14 15 15 15 15 15 15 15 15 14 15 15 15 15 16 16 15 15 14 14 14 15 15 15 15 16 16 16 17 17 18 19 20 21 22 23
15 14 14 14 14 14 14 15 15 14 15 15 15 15 16 15 15 15 16 16 15 15 15 15 14 14 14 14 14 15 15 15 16 17 18 18 19 19 20 21 22 23 24
15 15 15 15 15 15 15 15 14 15 15 16 16 15 16 16 16 16 16 15 16 16 16 15 15 15 15 15 15 16 16 16 16 17 18 19 20 21 21 21 22 23 24
16 16 16 15 15 15 15 15 15 15 15 15 16 16 17 16 16 16 15 15 16 16 16 15 16 16 16 16 16 16 16 17 17 17 18 19 20 21 21 22 23 24 23
17 16 16 16 15 15 15 15 14 15 15 15 16 16 16 16 16 16 15 15 15 15 16 16 16 16 16 17 17 16 17 17 17 17 17 18 19 20 21 22 24 24 24
17 17 16 16 16 16 15 15 15 15 15 16 16 16 16 15 15 15 15 15 15 15 16 16 16 16 16 17 17 17 17 18 18 18 18 19 19 20 21 22 24 24 25
18 17 17 16 16 16 16 15 15 15 16 16 16 15 15 15 15 15 15 15 15 15 16 16 16 16 16 16 16 17 18 18 19 19 19 19 20 21 21 22 23 24 24
19 19 18 17 16 16 16 15 15 15 15 15 15 15 15 15 15 14 15 15 15 15 16 16 16 16 16 16 16 17 18 18 19 19 20 21 21 22 23 23 23 23 23
19 20 19 18 17 16 16 16 16 15 15 15 15 16 16 16 16 15 16 16 16 15 15 15 16 16 16 17 18 18 18 19 19 19 19 20 21 22 22 23 22 22 23
20 19 19 18 17 16 16 16 16 16 16 16 16 17 18 17 17 16 16 16 16 15 15 16 16 17 17 18 19 19 19 19 19 18 19 19 20 21 21 21 21 22 22
20 19 18 18 17 17 17 17 17 17 16 16 17 18 18 18 17 16 16 16 16 16 16 17 17 17 17 17 18 18 17 17 16 17 17 18 19 19 19 20 20 21 22
19 19 18 18 18 17 18 18 17 16 16 16 17 17 17 17 17 18 18 17 17 17 17 17 17 17 17 17 16 16 15 15 16 17 18 18 18 19 19 20 20 20 21
20 19 18 18 18 18 19 18 17 16 16 17 17 17 17 17 18 18 18 18 18 17 17 17 17 16 16 16 15 15 15 16 17 17 18 19 19 19 19 19 20 21 22
20 19 19 19 19 19 19 18 18 18 17 17 18 18 17 18 18 18 18 18 18 17 17 17 17 16 15 15 15 15 15 16 17 17 18 18 19 19 19 20 21 22 23
Wind_Direction
285 294 295 300 303 303 302 301 299 295 289 288 288 291 295 298 299 302 304 304 302 299 292 287 283 280 277 274 271 270 267 265 262 262 262 261 261 263 263 263 262 262 261
283 288 287 294 302 304 301 300 297 291 287 286 288 290 293 296 299 301 301 302 301 298 295 290 286 283 279 276 272 269 269 266 265 264 265 264 264 264 265 265 265 265 264
276 283 286 294 299 304 301 298 295 290 290 291 292 293 293 296 298 300 302 303 302 299 296 295 290 287 283 278 273 271 269 268 268 267 267 266 267 268 267 268 269 267 265
276 278 283 292 299 300 298 297 297 296 296 298 299 299 299 298 299 299 300 299 299 299 297 294 295 292 286 280 276 274 271 270 271 269 269 269 267 267 266 268 270 269 266
274 276 284 289 295 299 300 298 298 299 300 300 299 298 298 297 295 295 297 298 299 298 297 295 293 292 290 284 279 278 275 273 273 272 271 269 268 267 267 267 268 269 267
274 277 283 288 292 296 298 298 297 298 300 299 299 300 297 295 295 294 296 297 296 296 296 295 292 290 286 284 283 281 278 275 274 273 272 270 268 268 267 267 266 269 270
273 278 281 286 289 294 297 296 294 294 297 299 301 302 299 297 296 295 297 300 299 298 296 294 293 291 288 284 282 281 280 276 273 270 271 269 268 266 267 267 267 269 271
276 281 282 283 288 290 292 294 295 296 298 301 303 302 297 296 297 296 297 299 299 300 298 295 294 293 289 286 285 284 282 279 276 273 271 268 268 268 267 267 269 271 272
276 282 284 283 288 291 290 290 296 297 298 300 301 302 299 296 297 297 298 300 301 299 298 296 295 293 289 286 286 285 285 284 281 279 276 273 272 272 271 270 272 274 273
271 275 279 284 289 291 291 291 294 296 297 299 299 298 300 300 298 298 300 299 301 301 299 297 295 293 288 285 285 285 283 283 282 281 280 279 278 277 278 277 276 277 278
272 278 279 285 287 286 288 291 294 295 297 301 302 301 302 303 303 302 302 302 304 304 302 299 295 291 287 285 284 285 284 284 283 280 276 275 276 277 279 279 280 281 281
272 276 281 288 289 292 295 297 297 294 296 299 302 304 306 304 303 305 305 304 305 308 307 302 299 296 291 287 286 285 284 283 283 280 276 276 277 278 280 280 282 284 284
274 275 279 286 289 292 294 295 298 296 297 298 300 304 306 305 304 308 311 312 311 312 313 310 304 300 296 291 289 288 287 284 284 282 280 278 279 280 282 283 285 286 287
273 274 277 283 289 289 291 292 295 294 298 302 304 306 306 305 305 308 309 310 310 311 311 309 305 302 299 296 294 290 289 286 286 286 284 281 281 282 285 287 288 288 289
271 273 275 281 286 288 288 290 295 298 302 303 304 306 308 306 306 307 308 309 308 309 310 307 303 300 298 296 295 294 291 289 289 288 287 284 283 283 286 288 290 291 291
272 273 275 279 283 286 289 291 292 295 299 302 303 305 307 309 308 307 307 309 308 308 308 304 301 297 296 295 294 295 295 292 291 289 288 288 287 286 287 289 291 292 292
269 270 273 275 278 285 287 287 292 293 297 300 303 305 307 308 308 307 307 308 308 309 309 305 303 297 295 294 294 293 293 294 294 292 291 291 291 291 290 291 292 294 295
265 267 273 275 276 281 287 288 293 294 296 299 304 307 308 308 308 307 306 307 308 309 309 306 304 303 299 296 294 293 294 295 294 293 291 291 293 295 295 294 295 295 295
262 264 269 273 274 277 284 288 291 293 295 299 303 305 307 308 310 309 308 307 308 309 308 307 305 304 302 300 299 297 297 296 294 292 292 293 295 298 297 297 297 297 297
263 266 268 272 274 278 281 286 290 292 293 296 300 305 307 307 308 309 309 308 309 309 307 306 306 306 305 304 303 302 302 299 296 294 294 295 295 296 297 297 297 297 298
263 264 267 271 273 276 278 282 288 292 292 292 297 303 306 306 306 308 310 311 311 311 309 307 307 307 305 303 302 302 302 301 300 299 298 296 297 298 299 300 299 299 300
262 264 266 270 273 275 276 280 285 287 290 292 295 299 302 304 307 308 311 313 313 313 311 310 309 309 309 307 306 304 303 303 303 302 301 300 301 304 305 304 303 303 303
258 261 265 269 270 272 273 277 282 284 286 290 294 298 300 301 303 306 310 312 311 313 314 313 311 310 310 311 311 310 308 306 306 306 308 309 310 311 311 309 309 309 308
256 259 263 267 268 268 270 273 278 279 282 286 292 297 300 302 302 303 304 307 309 310 315 315 314 313 312 314 315 315 316 316 315 316 317 317 317 316 316 315 316 316 316
255 255 260 263 266 268 271 272 274 276 281 284 288 295 299 300 302 303 304 305 308 312 313 316 317 316 316 316 315 315 317 317 318 318 317 317 318 318 319 320 320 319 318
253 257 261 265 266 269 271 271 271 275 279 282 287 292 295 297 299 301 303 306 308 309 310 312 314 316 317 317 317 317 317 318 319 320 321 321 321 320 320 320 320 320 320
Height
5841 5840 5840 5839 5838 5838 5837 5836 5835 5834 5833 5833 5832 5831 5830 5829 5828 5827 5826 5824 5823 5822 5821 5820 5819 5818 5818 5817 5817 5817 5817 5817 5817 5817 5817 5818 5819 5819 5819 5820 5820 5821 5822
5840 5839 5838 5837 5837 5836 5834 5833 5832 5832 5831 5830 5829 5828 5827 5826 5825 5824 5823 5821 5820 5818 5817 5816 5815 5814 5813 5813 5812 5812 5812 5812 5812 5812 5812 5813 5813 5813 5814 5814 5814 5815 5816
5838 5837 5836 5836 5835 5834 5832 5831 5830 5829 5828 5828 5827 5825 5824 5823 5822 5821 5819 5818 5816 5815 5813 5812 5811 5810 5809 5808 5807 5807 5806 5806 5806 5807 5807 5807 5808 5807 5808 5808 5809 5809 5810
5835 5835 5834 5834 5833 5832 5830 5829 5828 5827 5825 5824 5823 5822 5821 5820 5819 5817 5815 5814 5812 5810 5809 5807 5806 5805 5804 5803 5802 5801 5801 5801 5801 5801 5801 5802 5802 5802 5802 5803 5803 5803 5803
5833 5833 5832 5831 5830 5829 5828 5826 5825 5823 5822 5821 5819 5818 5816 5815 5814 5813 5811 5809 5808 5806 5804 5803 5801 5800 5799 5798 5797 5796 5796 5795 5795 5795 5796 5796 5796 5796 5796 5797 5797 5797 5797
5830 5830 5829 5828 5827 5826 5825 5823 5822 5820 5819 5817 5816 5814 5812 5810 5809 5808 5807 5805 5803 5801 5800 5798 5796 5795 5793 5792 5791 5791 5790 5790 5790 5790 5790 5790 5790 5790 5790 5791 5791 5791 5791
5827 5827 5826 5825 5824 5823 5822 5820 5819 5817 5815 5814 5812 5809 5807 5806 5805 5803 5802 5800 5798 5796 5795 5793 5791 5789 5788 5787 5786 5785 5785 5784 5784 5784 5784 5784 5784 5784 5785 5785 5785 5785 5785
5824 5823 5822 5822 5821 5819 5818 5817 5815 5814 5812 5810 5808 5806 5804 5802 5800 5799 5797 5795 5793 5790 5789 5787 5785 5784 5782 5781 5781 5780 5779 5779 5779 5778 5779 5779 5779 5778 5779 5779 5779 5779 5779
5820 5820 5819 5818 5817 5816 5814 5813 5811 5810 5808 5807 5804 5802 5799 5798 5796 5794 5792 5789 5787 5785 5783 5781 5780 5778 5777 5776 5775 5775 5774 5774 5773 5773 5773 5773 5773 5773 5773 5774 5774 5774 5773
5817 5816 5815 5814 5813 5812 5811 5809 5808 5806 5805 5803 5800 5798 5795 5793 5791 5789 5786 5784 5782 5780 5778 5776 5774 5773 5772 5771 5770 5770 5769 5769 5768 5768 5768 5768 5769 5769 5769 5768 5768 5768 5768
5813 5812 5811 5810 5809 5808 5806 5805 5804 5802 5800 5798 5796 5793 5791 5789 5786 5784 5782 5779 5777 5775 5772 5771 5769 5767 5766 5766 5765 5764 5764 5764 5763 5763 5763 5764 5764 5764 5763 5763 5763 5762 5762
5809 5808 5807 5806 5805 5804 5802 5801 5799 5798 5796 5794 5792 5790 5787 5785 5782 5780 5778 5775 5773 5770 5768 5766 5764 5763 5762 5761 5760 5759 5759 5759 5758 5758 5758 5759 5759 5758 5758 5758 5757 5756 5755
5804 5804 5803 5802 5801 5800 5799 5797 5795 5794 5792 5790 5788 5785 5783 5781 5779 5776 5774 5772 5769 5767 5764 5762 5760 5759 5757 5756 5755 5755 5754 5754 5754 5753 5753 5753 5754 5753 5753 5752 5751 5750 5749
5800 5799 5799 5798 5797 5796 5795 5793 5791 5789 5788 5786 5784 5782 5779 5777 5775 5773 5771 5768 5766 5763 5761 5759 5757 5755 5754 5753 5752 5751 5750 5749 5749 5748 5748 5748 5748 5748 5747 5746 5745 5743 5742
5795 5795 5794 5794 5793 5791 5790 5789 5787 5786 5784 5782 5780 5777 5775 5773 5771 5769 5767 5764 5762 5760 5757 5755 5753 5752 5750 5749 5748 5747 5746 5745 5744 5743 5743 5742 5742 5741 5740 5739 5738 5737 5735
5791 5790 5790 5789 5788 5787 5786 5785 5783 5782 5780 5778 5776 5773 5771 5769 5767 5765 5763 5761 5758 5756 5754 5752 5750 5748 5747 5745 5744 5743 5741 5740 5739 5739 5738 5737 5736 5735 5734 5733 5732 5730 5728
5786 5785 5785 5784 5783 5783 5782 5781 5779 5777 5776 5774 5772 5769 5767 5765 5763 5760 5758 5757 5754 5752 5750 5748 5746 5744 5743 5741 5740 5739 5737 5736 5735 5734 5733 5732 5731 5730 5729 5727 5725 5724 5721
5780 5780 5779 5779 5778 5778 5777 5776 5774 5773 5771 5769 5767 5765 5763 5761 5759 5757 5755 5753 5750 5748 5746 5744 5742 5741 5739 5737 5735 5734 5733 5732 5730 5729 5728 5727 5725 5724 5722 5721 5719 5717 5715
5775 5774 5774 5774 5773 5773 5772 5771 5769 5768 5766 5765 5763 5761 5759 5757 5755 5753 5751 5749 5747 5745 5743 5740 5738 5737 5735 5733 5731 5730 5728 5727 5725 5724 5722 5721 5720 5718 5716 5715 5713 5710 5708
5769 5769 5769 5768 5768 5768 5767 5766 5765 5764 5762 5761 5759 5758 5755 5753 5752 5749 5747 5745 5743 5741 5739 5737 5735 5733 5731 5729 5727 5726 5724 5722 5720 5718 5717 5715 5713 5712 5710 5708 5706 5704 5701
5763 5763 5763 5763 5763 5762 5762 5761 5760 5759 5758 5757 5755 5753 5752 5750 5748 5746 5744 5742 5740 5738 5735 5733 5731 5729 5727 5725 5723 5721 5719 5717 5715 5713 5711 5709 5707 5705 5703 5701 5699 5696 5694
5757 5757 5758 5758 5757 5757 5757 5756 5756 5755 5753 5752 5751 5749 5747 5745 5743 5742 5740 5738 5736 5734 5732 5730 5728 5725 5723 5721 5719 5717 5714 5712 5710 5708 5706 5704 5702 5699 5697 5695 5692 5690 5688
5751 5751 5752 5752 5752 5752 5752 5751 5750 5749 5749 5747 5746 5744 5742 5741 5739 5737 5736 5734 5732 5730 5728 5726 5724 5722 5720 5717 5715 5712 5710 5707 5705 5703 5701 5699 5697 5694 5692 5689 5687 5684 5682
5745 5746 5746 5747 5747 5746 5746 5745 5745 5744 5743 5743 5741 5740 5738 5736 5735 5733 5732 5730 5728 5726 5724 5722 5720 5718 5715 5713 5711 5708 5706 5704 5702 5700 5697 5695 5693 5690 5687 5684 5682 5679 5676
5739 5740 5741 5740 5741 5740 5740 5739 5739 5738 5738 5737 5736 5735 5733 5732 5730 5729 5727 5726 5724 5723 5721 5718 5716 5714 5712 5710 5707 5705 5703 5701 5699 5697 5694 5691 5689 5686 5683 5680 5677 5674 5671
5733 5734 5735 5735 5735 5734 5734 5734 5734 5733 5732 5732 5731 5730 5728 5727 5725 5724 5723 5721 5720 5718 5716 5714 5712 5710 5709 5706 5704 5702 5700 5698 5696 5693 5691 5688 5685 5682 5679 5676 5673 5669 5666